contact:dominique.lefevre@mio.osupytheas.fr, maurice.libes@osupytheas.fr, didier.mallarino@osupytheas.fr
Project:EMSO http://www.emso-fr.org/EMSO-France
Depth: 2436.0 m
Title:EMSO Ligure Ouest : Data MII capteur MICROCAT
DateTime_Computer,Latitude,Longitude,Temperature,Conductivity,Pressure,DateTime_Instrument
DateTime_Computer,Latitude,Longitude,degC,S m-1,dbar,DateTime_Instrument
2021-06-08T00:02:31Z,42.805,6.029,13.3051,4.60027,2470.007,2021-6-08T02:03:44Z
2021-06-08T00:05:34Z,42.805,6.029,13.3059,4.60029,2470.053,2021-6-08T02:06:47Z
2021-06-08T00:08:37Z,42.805,6.029,13.3043,4.60047,2470.007,2021-6-08T02:09:50Z
2021-06-08T00:11:40Z,42.805,6.029,13.3038,4.60041,2470.007,2021-6-08T02:12:53Z
2021-06-08T00:14:43Z,42.805,6.029,13.3068,4.60027,2470.03,2021-6-08T02:15:56Z
2021-06-08T00:17:46Z,42.805,6.029,13.3036,4.60039,2470.03,2021-6-08T02:18:59Z
2021-06-08T00:20:50Z,42.805,6.029,13.3039,4.60034,2470.017,2021-6-08T02:22:03Z
2021-06-08T00:23:53Z,42.805,6.029,13.3061,4.60046,2470.077,2021-6-08T02:25:06Z
2021-06-08T00:26:56Z,42.805,6.029,13.3061,4.60039,2470.053,2021-6-08T02:28:09Z
2021-06-08T00:29:59Z,42.805,6.029,13.3046,4.60036,2470.053,2021-6-08T02:31:12Z
2021-06-08T00:33:02Z,42.805,6.029,13.3046,4.60039,2470.03,2021-6-08T02:34:15Z
2021-06-08T00:36:05Z,42.805,6.029,13.3055,4.60032,2470.03,2021-6-08T02:37:18Z
2021-06-08T00:39:08Z,42.805,6.029,13.3040,4.60034,2470.03,2021-6-08T02:40:21Z
2021-06-08T00:42:11Z,42.805,6.029,13.3048,4.60036,2470.03,2021-6-08T02:43:24Z
2021-06-08T00:45:15Z,42.805,6.029,13.3036,4.60029,2470.017,2021-6-08T02:46:27Z
2021-06-08T00:48:18Z,42.805,6.029,13.3034,4.60026,2470.007,2021-6-08T02:49:31Z
2021-06-08T00:51:21Z,42.805,6.029,13.3037,4.60032,2470.017,2021-6-08T02:52:34Z
2021-06-08T00:54:24Z,42.805,6.029,13.3041,4.60050,2469.993,2021-6-08T02:55:37Z
2021-06-08T00:57:27Z,42.805,6.029,13.3045,4.60031,2470.04,2021-6-08T02:58:40Z
2021-06-08T01:00:30Z,42.805,6.029,13.3036,4.60044,2470.03,2021-6-08T03:01:43Z
2021-06-08T01:03:33Z,42.805,6.029,13.3039,4.60042,2470.053,2021-6-08T03:04:46Z
2021-06-08T01:06:36Z,42.805,6.029,13.3054,4.60030,2470.04,2021-6-08T03:07:49Z
2021-06-08T01:09:39Z,42.805,6.029,13.3043,4.60047,2470.04,2021-6-08T03:10:52Z
2021-06-08T01:12:43Z,42.805,6.029,13.3035,4.60036,2470.04,2021-6-08T03:13:56Z
2021-06-08T01:15:46Z,42.805,6.029,13.3033,4.60044,2470.077,2021-6-08T03:16:59Z
2021-06-08T01:18:49Z,42.805,6.029,13.3041,4.60055,2470.063,2021-6-08T03:20:02Z
2021-06-08T01:21:52Z,42.805,6.029,13.3043,4.60038,2470.053,2021-6-08T03:23:05Z
2021-06-08T01:24:55Z,42.805,6.029,13.3044,4.60026,2470.017,2021-6-08T03:26:08Z
2021-06-08T01:27:58Z,42.805,6.029,13.3037,4.60044,2470.063,2021-6-08T03:29:11Z
2021-06-08T01:31:01Z,42.805,6.029,13.3056,4.60050,2470.077,2021-6-08T03:32:14Z
2021-06-08T01:34:04Z,42.805,6.029,13.3009,4.60053,2470.053,2021-6-08T03:35:17Z
2021-06-08T01:37:08Z,42.805,6.029,13.3020,4.60083,2470.053,2021-6-08T03:38:21Z
2021-06-08T01:40:11Z,42.805,6.029,13.3019,4.60045,2470.063,2021-6-08T03:41:24Z
2021-06-08T01:43:14Z,42.805,6.029,13.2991,4.60060,2470.017,2021-6-08T03:44:27Z
2021-06-08T01:46:17Z,42.805,6.029,13.2994,4.60059,2470.017,2021-6-08T03:47:30Z
2021-06-08T01:49:20Z,42.805,6.029,13.2996,4.60034,2470.03,2021-6-08T03:50:33Z
2021-06-08T01:52:23Z,42.805,6.029,13.2990,4.60032,2470.04,2021-6-08T03:53:36Z
2021-06-08T01:55:26Z,42.805,6.029,13.2993,4.60014,2470.077,2021-6-08T03:56:39Z
2021-06-08T01:58:29Z,42.805,6.029,13.2993,4.60016,2470.063,2021-6-08T03:59:42Z
2021-06-08T02:01:33Z,42.805,6.029,13.2992,4.60011,2470.063,2021-6-08T04:02:45Z
2021-06-08T02:04:36Z,42.805,6.029,13.2994,4.60011,2470.087,2021-6-08T04:05:49Z
2021-06-08T02:07:39Z,42.805,6.029,13.2993,4.60020,2470.087,2021-6-08T04:08:52Z
2021-06-08T02:10:42Z,42.805,6.029,13.2992,4.60014,2470.124,2021-6-08T04:11:55Z
2021-06-08T02:13:45Z,42.805,6.029,13.2992,4.60020,2470.077,2021-6-08T04:14:58Z
2021-06-08T02:16:48Z,42.805,6.029,13.2990,4.60019,2470.077,2021-6-08T04:18:01Z
2021-06-08T02:19:51Z,42.805,6.029,13.2990,4.60014,2470.077,2021-6-08T04:21:04Z
2021-06-08T02:22:54Z,42.805,6.029,13.2992,4.60020,2470.063,2021-6-08T04:24:07Z
2021-06-08T02:25:57Z,42.805,6.029,13.2993,4.60022,2470.053,2021-6-08T04:27:10Z
2021-06-08T02:29:01Z,42.805,6.029,13.2993,4.60016,2470.063,2021-6-08T04:30:14Z
2021-06-08T02:32:04Z,42.805,6.029,13.2991,4.60015,2470.087,2021-6-08T04:33:17Z
2021-06-08T02:35:07Z,42.805,6.029,13.2993,4.60012,2470.077,2021-6-08T04:36:20Z
2021-06-08T02:38:10Z,42.805,6.029,13.2990,4.60021,2470.087,2021-6-08T04:39:23Z
2021-06-08T02:41:13Z,42.805,6.029,13.2991,4.60017,2470.077,2021-6-08T04:42:26Z
2021-06-08T02:44:16Z,42.805,6.029,13.2991,4.60022,2470.124,2021-6-08T04:45:29Z
2021-06-08T02:47:19Z,42.805,6.029,13.2991,4.60023,2470.087,2021-6-08T04:48:32Z
2021-06-08T02:50:22Z,42.805,6.029,13.2994,4.60011,2470.124,2021-6-08T04:51:35Z
2021-06-08T02:53:26Z,42.805,6.029,13.2991,4.60016,2470.063,2021-6-08T04:54:38Z
2021-06-08T02:56:29Z,42.805,6.029,13.2991,4.60016,2470.1,2021-6-08T04:57:42Z
2021-06-08T02:59:32Z,42.805,6.029,13.2991,4.60011,2470.087,2021-6-08T05:00:45Z
2021-06-08T03:02:35Z,42.805,6.029,13.2989,4.60008,2470.087,2021-6-08T05:03:48Z
2021-06-08T03:05:38Z,42.805,6.029,13.2987,4.60006,2470.124,2021-6-08T05:06:51Z
2021-06-08T03:08:41Z,42.805,6.029,13.2993,4.60001,2470.087,2021-6-08T05:09:54Z
2021-06-08T03:11:44Z,42.805,6.029,13.2991,4.60000,2470.077,2021-6-08T05:12:57Z
2021-06-08T03:14:47Z,42.805,6.029,13.2991,4.59999,2470.017,2021-6-08T05:16:00Z
2021-06-08T03:17:50Z,42.805,6.029,13.2990,4.60003,2470.063,2021-6-08T05:19:03Z
2021-06-08T03:20:54Z,42.805,6.029,13.2993,4.60002,2470.04,2021-6-08T05:22:07Z
2021-06-08T03:23:57Z,42.805,6.029,13.2992,4.60006,2470.077,2021-6-08T05:25:10Z
2021-06-08T03:27:00Z,42.805,6.029,13.2989,4.60006,2470.1,2021-6-08T05:28:13Z
2021-06-08T03:30:03Z,42.805,6.029,13.2988,4.60003,2470.124,2021-6-08T05:31:16Z
2021-06-08T03:33:06Z,42.805,6.029,13.2991,4.60003,2470.124,2021-6-08T05:34:19Z
2021-06-08T03:36:09Z,42.805,6.029,13.2990,4.59999,2470.087,2021-6-08T05:37:22Z
2021-06-08T03:39:12Z,42.805,6.029,13.2988,4.60002,2470.11,2021-6-08T05:40:25Z
2021-06-08T03:42:15Z,42.805,6.029,13.2985,4.59997,2470.124,2021-6-08T05:43:28Z
2021-06-08T03:45:19Z,42.805,6.029,13.2988,4.60000,2470.1,2021-6-08T05:46:31Z
2021-06-08T03:48:22Z,42.805,6.029,13.2986,4.59999,2470.124,2021-6-08T05:49:35Z
2021-06-08T03:51:25Z,42.805,6.029,13.2987,4.60002,2470.063,2021-6-08T05:52:38Z
2021-06-08T03:54:28Z,42.805,6.029,13.2988,4.59999,2470.1,2021-6-08T05:55:41Z
2021-06-08T03:57:31Z,42.805,6.029,13.2986,4.60001,2470.147,2021-6-08T05:58:44Z
2021-06-08T04:00:34Z,42.805,6.029,13.2985,4.60001,2470.11,2021-6-08T06:01:47Z
2021-06-08T04:03:37Z,42.805,6.029,13.2992,4.60004,2470.147,2021-6-08T06:04:50Z
2021-06-08T04:06:40Z,42.805,6.029,13.2983,4.60003,2470.11,2021-6-08T06:07:53Z
2021-06-08T04:09:43Z,42.805,6.029,13.2984,4.60004,2470.133,2021-6-08T06:10:56Z
2021-06-08T04:12:47Z,42.805,6.029,13.2986,4.60000,2470.11,2021-6-08T06:14:00Z
2021-06-08T04:15:50Z,42.805,6.029,13.2983,4.59999,2470.11,2021-6-08T06:17:03Z
2021-06-08T04:18:53Z,42.805,6.029,13.2989,4.60000,2470.133,2021-6-08T06:20:06Z
2021-06-08T04:21:56Z,42.805,6.029,13.2986,4.60001,2470.147,2021-6-08T06:23:09Z
2021-06-08T04:24:59Z,42.805,6.029,13.2985,4.59999,2470.124,2021-6-08T06:26:12Z
2021-06-08T04:28:02Z,42.805,6.029,13.2986,4.60009,2470.133,2021-6-08T06:29:15Z
2021-06-08T04:31:05Z,42.805,6.029,13.2981,4.60003,2470.133,2021-6-08T06:32:18Z
2021-06-08T04:34:08Z,42.805,6.029,13.2980,4.60000,2470.156,2021-6-08T06:35:21Z
2021-06-08T04:37:12Z,42.805,6.029,13.2990,4.60001,2470.11,2021-6-08T06:38:24Z
2021-06-08T04:40:15Z,42.805,6.029,13.2987,4.60005,2470.133,2021-6-08T06:41:28Z
2021-06-08T04:43:18Z,42.805,6.029,13.2984,4.60006,2470.147,2021-6-08T06:44:31Z
2021-06-08T04:46:21Z,42.805,6.029,13.2988,4.60010,2470.156,2021-6-08T06:47:34Z
2021-06-08T04:49:24Z,42.805,6.029,13.2986,4.60016,2470.156,2021-6-08T06:50:37Z
2021-06-08T04:52:27Z,42.805,6.029,13.2986,4.60011,2470.147,2021-6-08T06:53:40Z
2021-06-08T04:55:30Z,42.805,6.029,13.2985,4.60017,2470.11,2021-6-08T06:56:43Z
2021-06-08T04:58:33Z,42.805,6.029,13.2986,4.60023,2470.147,2021-6-08T06:59:46Z
2021-06-08T05:01:37Z,42.805,6.029,13.2986,4.60015,2470.133,2021-6-08T07:02:49Z
2021-06-08T05:04:40Z,42.805,6.029,13.2983,4.60014,2470.124,2021-6-08T07:05:53Z
2021-06-08T05:07:43Z,42.805,6.029,13.2982,4.60023,2470.171,2021-6-08T07:08:56Z
2021-06-08T05:10:46Z,42.805,6.029,13.2983,4.60029,2470.133,2021-6-08T07:11:59Z
2021-06-08T05:13:49Z,42.805,6.029,13.2983,4.60021,2470.18,2021-6-08T07:15:02Z
2021-06-08T05:16:52Z,42.805,6.029,13.2986,4.60026,2470.171,2021-6-08T07:18:05Z
2021-06-08T05:19:55Z,42.805,6.029,13.2986,4.60014,2470.133,2021-6-08T07:21:08Z
2021-06-08T05:22:58Z,42.805,6.029,13.2984,4.60014,2470.156,2021-6-08T07:24:11Z
2021-06-08T05:26:01Z,42.805,6.029,13.2984,4.60024,2470.171,2021-6-08T07:27:14Z
2021-06-08T05:29:05Z,42.805,6.029,13.2984,4.60029,2470.156,2021-6-08T07:30:18Z
2021-06-08T05:32:08Z,42.805,6.029,13.2983,4.60044,2470.147,2021-6-08T07:33:21Z
2021-06-08T05:35:11Z,42.805,6.029,13.2983,4.60031,2470.171,2021-6-08T07:36:24Z
2021-06-08T05:38:14Z,42.805,6.029,13.2986,4.60033,2470.171,2021-6-08T07:39:27Z
2021-06-08T05:41:17Z,42.805,6.029,13.2986,4.60043,2470.171,2021-6-08T07:42:30Z
2021-06-08T05:44:20Z,42.805,6.029,13.2984,4.60064,2470.18,2021-6-08T07:45:33Z
2021-06-08T05:47:23Z,42.805,6.029,13.3015,4.60048,2470.147,2021-6-08T07:48:36Z
2021-06-08T05:50:26Z,42.805,6.029,13.2992,4.60031,2470.18,2021-6-08T07:51:39Z
2021-06-08T05:53:30Z,42.805,6.029,13.3046,4.60077,2470.18,2021-6-08T07:54:43Z
2021-06-08T05:56:33Z,42.805,6.029,13.3058,4.60075,2470.18,2021-6-08T07:57:46Z
2021-06-08T05:59:36Z,42.805,6.029,13.3076,4.60051,2470.194,2021-6-08T08:00:49Z
2021-06-08T06:02:39Z,42.805,6.029,13.3048,4.60046,2470.171,2021-6-08T08:03:52Z
2021-06-08T06:05:42Z,42.805,6.029,13.3046,4.60033,2470.203,2021-6-08T08:06:55Z
2021-06-08T06:08:45Z,42.805,6.029,13.3046,4.60042,2470.171,2021-6-08T08:09:58Z
2021-06-08T06:11:48Z,42.805,6.029,13.3042,4.60050,2470.18,2021-6-08T08:13:01Z
2021-06-08T06:14:51Z,42.805,6.029,13.3046,4.60039,2470.156,2021-6-08T08:16:04Z
2021-06-08T06:17:54Z,42.805,6.029,13.3051,4.60057,2470.171,2021-6-08T08:19:07Z
2021-06-08T06:20:58Z,42.805,6.029,13.3061,4.60049,2470.194,2021-6-08T08:22:11Z
2021-06-08T06:24:01Z,42.805,6.029,13.3069,4.60052,2470.156,2021-6-08T08:25:14Z
2021-06-08T06:27:04Z,42.805,6.029,13.3069,4.60045,2470.194,2021-6-08T08:28:17Z
2021-06-08T06:30:07Z,42.805,6.029,13.3072,4.60031,2470.156,2021-6-08T08:31:20Z
2021-06-08T06:33:10Z,42.805,6.029,13.3069,4.60036,2470.171,2021-6-08T08:34:23Z
2021-06-08T06:36:13Z,42.805,6.029,13.3071,4.60031,2470.171,2021-6-08T08:37:26Z
2021-06-08T06:39:16Z,42.805,6.029,13.3075,4.60035,2470.171,2021-6-08T08:40:29Z
2021-06-08T06:42:19Z,42.805,6.029,13.3080,4.60031,2470.156,2021-6-08T08:43:32Z
2021-06-08T06:45:23Z,42.805,6.029,13.3074,4.60024,2470.171,2021-6-08T08:46:36Z
2021-06-08T06:48:26Z,42.805,6.029,13.3072,4.60024,2470.194,2021-6-08T08:49:39Z
2021-06-08T06:51:29Z,42.805,6.029,13.3069,4.60029,2470.156,2021-6-08T08:52:42Z
2021-06-08T06:54:32Z,42.805,6.029,13.3070,4.60021,2470.133,2021-6-08T08:55:45Z
2021-06-08T06:57:35Z,42.805,6.029,13.3061,4.60020,2470.147,2021-6-08T08:58:48Z
2021-06-08T07:00:38Z,42.805,6.029,13.3049,4.60016,2470.194,2021-6-08T09:01:51Z
2021-06-08T07:03:41Z,42.805,6.029,13.3082,4.60016,2470.124,2021-6-08T09:04:54Z
2021-06-08T07:06:44Z,42.805,6.029,13.3061,4.60013,2470.124,2021-6-08T09:07:57Z
2021-06-08T07:09:47Z,42.805,6.029,13.3063,4.60033,2470.133,2021-6-08T09:11:00Z
2021-06-08T07:12:51Z,42.805,6.029,13.3031,4.60023,2470.156,2021-6-08T09:14:04Z
2021-06-08T07:15:54Z,42.805,6.029,13.3051,4.60031,2470.147,2021-6-08T09:17:07Z
2021-06-08T07:18:57Z,42.805,6.029,13.3063,4.60024,2470.171,2021-6-08T09:20:10Z
2021-06-08T07:22:00Z,42.805,6.029,13.3038,4.60043,2470.171,2021-6-08T09:23:13Z
2021-06-08T07:25:03Z,42.805,6.029,13.3046,4.60038,2470.156,2021-6-08T09:26:16Z
2021-06-08T07:28:06Z,42.805,6.029,13.3043,4.60025,2470.133,2021-6-08T09:29:19Z
2021-06-08T07:31:09Z,42.805,6.029,13.3039,4.60021,2470.124,2021-6-08T09:32:22Z
2021-06-08T07:34:12Z,42.805,6.029,13.3051,4.60022,2470.133,2021-6-08T09:35:25Z
2021-06-08T07:37:16Z,42.805,6.029,13.3057,4.60027,2470.147,2021-6-08T09:38:29Z
2021-06-08T07:40:19Z,42.805,6.029,13.3042,4.60019,2470.133,2021-6-08T09:41:32Z
2021-06-08T07:43:22Z,42.805,6.029,13.3055,4.60024,2470.133,2021-6-08T09:44:35Z
2021-06-08T07:46:25Z,42.805,6.029,13.3056,4.60037,2470.133,2021-6-08T09:47:38Z
2021-06-08T07:49:28Z,42.805,6.029,13.3040,4.60044,2470.133,2021-6-08T09:50:41Z
2021-06-08T07:52:31Z,42.805,6.029,13.3032,4.60050,2470.156,2021-6-08T09:53:44Z
2021-06-08T07:55:34Z,42.805,6.029,13.3050,4.60021,2470.147,2021-6-08T09:56:47Z
2021-06-08T07:58:37Z,42.805,6.029,13.3061,4.60043,2470.147,2021-6-08T09:59:50Z
2021-06-08T08:01:41Z,42.805,6.029,13.3043,4.60042,2470.156,2021-6-08T10:02:53Z
2021-06-08T08:04:44Z,42.805,6.029,13.3063,4.60032,2470.147,2021-6-08T10:05:57Z
2021-06-08T08:07:47Z,42.805,6.029,13.3038,4.60042,2470.18,2021-6-08T10:09:00Z
2021-06-08T08:10:50Z,42.805,6.029,13.3047,4.60035,2470.147,2021-6-08T10:12:03Z
2021-06-08T08:13:53Z,42.805,6.029,13.3057,4.60046,2470.133,2021-6-08T10:15:06Z
2021-06-08T08:16:56Z,42.805,6.029,13.3043,4.60047,2470.11,2021-6-08T10:18:09Z
2021-06-08T08:19:59Z,42.805,6.029,13.3037,4.60040,2470.147,2021-6-08T10:21:12Z
2021-06-08T08:23:02Z,42.805,6.029,13.3034,4.60043,2470.1,2021-6-08T10:24:15Z
2021-06-08T08:26:05Z,42.805,6.029,13.3051,4.60053,2470.073,2021-6-08T10:27:18Z
2021-06-08T08:29:09Z,42.805,6.029,13.3054,4.60064,2470.124,2021-6-08T10:30:22Z
2021-06-08T08:32:12Z,42.805,6.029,13.3066,4.60039,2470.138,2021-6-08T10:33:25Z
2021-06-08T08:35:15Z,42.805,6.029,13.3068,4.60060,2470.124,2021-6-08T10:36:28Z
2021-06-08T08:38:18Z,42.805,6.029,13.3061,4.60052,2470.133,2021-6-08T10:39:31Z
2021-06-08T08:41:21Z,42.805,6.029,13.3049,4.60072,2470.147,2021-6-08T10:42:34Z
2021-06-08T08:44:24Z,42.805,6.029,13.3048,4.60039,2470.124,2021-6-08T10:45:37Z
2021-06-08T08:47:27Z,42.805,6.029,13.3024,4.60027,2470.147,2021-6-08T10:48:40Z
2021-06-08T08:50:30Z,42.805,6.029,13.3034,4.60034,2470.133,2021-6-08T10:51:43Z
2021-06-08T08:53:34Z,42.805,6.029,13.3065,4.60014,2470.087,2021-6-08T10:54:47Z
2021-06-08T08:56:37Z,42.805,6.029,13.3044,4.60039,2470.087,2021-6-08T10:57:50Z
2021-06-08T08:59:40Z,42.805,6.029,13.3035,4.60048,2470.087,2021-6-08T11:00:53Z
2021-06-08T09:02:43Z,42.805,6.029,13.3034,4.60033,2470.147,2021-6-08T11:03:56Z
2021-06-08T09:05:46Z,42.805,6.029,13.3027,4.60078,2470.124,2021-6-08T11:06:59Z
2021-06-08T09:08:49Z,42.805,6.029,13.3038,4.60084,2470.1,2021-6-08T11:10:02Z
2021-06-08T09:11:52Z,42.805,6.029,13.3044,4.60049,2470.11,2021-6-08T11:13:05Z
2021-06-08T09:14:55Z,42.805,6.029,13.3026,4.60021,2470.133,2021-6-08T11:16:08Z
2021-06-08T09:17:59Z,42.805,6.029,13.3041,4.60046,2470.124,2021-6-08T11:19:12Z
2021-06-08T09:21:02Z,42.805,6.029,13.3029,4.60038,2470.077,2021-6-08T11:22:15Z
2021-06-08T09:24:05Z,42.805,6.029,13.3024,4.60021,2470.077,2021-6-08T11:25:18Z
2021-06-08T09:27:08Z,42.805,6.029,13.3016,4.60014,2470.063,2021-6-08T11:28:21Z
2021-06-08T09:30:11Z,42.805,6.029,13.3031,4.60027,2470.077,2021-6-08T11:31:24Z
2021-06-08T09:33:14Z,42.805,6.029,13.3036,4.60045,2470.077,2021-6-08T11:34:27Z
2021-06-08T09:36:17Z,42.805,6.029,13.3039,4.60033,2470.077,2021-6-08T11:37:30Z
2021-06-08T09:39:20Z,42.805,6.029,13.3033,4.60023,2470.1,2021-6-08T11:40:33Z
2021-06-08T09:42:24Z,42.805,6.029,13.3058,4.60041,2470.077,2021-6-08T11:43:37Z
2021-06-08T09:45:27Z,42.805,6.029,13.3051,4.60032,2470.1,2021-6-08T11:46:40Z
2021-06-08T09:48:30Z,42.805,6.029,13.3041,4.60026,2470.04,2021-6-08T11:49:43Z
2021-06-08T09:51:33Z,42.805,6.029,13.3025,4.60034,2470.077,2021-6-08T11:52:46Z
2021-06-08T09:54:36Z,42.805,6.029,13.3048,4.60031,2470.1,2021-6-08T11:55:49Z
2021-06-08T09:57:39Z,42.805,6.029,13.3024,4.60009,2470.077,2021-6-08T11:58:52Z
2021-06-08T10:00:42Z,42.805,6.029,13.3041,4.60014,2470.1,2021-6-08T12:01:55Z
2021-06-08T10:03:45Z,42.805,6.029,13.3030,4.60017,2470.077,2021-6-08T12:04:58Z
2021-06-08T10:06:49Z,42.805,6.029,13.3026,4.60029,2470.077,2021-6-08T12:08:02Z
2021-06-08T10:09:52Z,42.805,6.029,13.3014,4.60020,2470.04,2021-6-08T12:11:05Z
2021-06-08T10:12:55Z,42.805,6.029,13.3029,4.60011,2470.1,2021-6-08T12:14:08Z
2021-06-08T10:15:58Z,42.805,6.029,13.3029,4.60022,2470.077,2021-6-08T12:17:11Z
2021-06-08T10:19:01Z,42.805,6.029,13.3018,4.60029,2470.1,2021-6-08T12:20:14Z
2021-06-08T10:22:04Z,42.805,6.029,13.3036,4.60035,2470.03,2021-6-08T12:23:17Z
2021-06-08T10:25:07Z,42.805,6.029,13.3051,4.60031,2470.03,2021-6-08T12:26:20Z
2021-06-08T10:28:10Z,42.805,6.029,13.3036,4.60052,2470.077,2021-6-08T12:29:23Z
2021-06-08T10:31:14Z,42.805,6.029,13.3014,4.60028,2470.04,2021-6-08T12:32:26Z
2021-06-08T10:34:17Z,42.805,6.029,13.3034,4.60034,2470.04,2021-6-08T12:35:30Z
2021-06-08T10:37:20Z,42.805,6.029,13.3037,4.60017,2470.053,2021-6-08T12:38:33Z
2021-06-08T10:40:23Z,42.805,6.029,13.3026,4.60019,2470.04,2021-6-08T12:41:36Z
2021-06-08T10:43:26Z,42.805,6.029,13.3028,4.60033,2470.04,2021-6-08T12:44:39Z
2021-06-08T10:46:29Z,42.805,6.029,13.3040,4.60031,2470.053,2021-6-08T12:47:42Z
2021-06-08T10:49:32Z,42.805,6.029,13.3034,4.60036,2470.03,2021-6-08T12:50:45Z
2021-06-08T10:52:35Z,42.805,6.029,13.3017,4.60019,2470.017,2021-6-08T12:53:48Z
2021-06-08T10:55:39Z,42.805,6.029,13.3031,4.60017,2469.993,2021-6-08T12:56:51Z
2021-06-08T10:58:42Z,42.805,6.029,13.3037,4.60011,2470.053,2021-6-08T12:59:55Z
2021-06-08T11:01:45Z,42.805,6.029,13.3024,4.60025,2470.007,2021-6-08T13:02:58Z
2021-06-08T11:04:48Z,42.805,6.029,13.3033,4.60026,2470.053,2021-6-08T13:06:01Z
2021-06-08T11:07:51Z,42.805,6.029,13.3026,4.60026,2469.97,2021-6-08T13:09:04Z
2021-06-08T11:10:54Z,42.805,6.029,13.3024,4.60034,2470.007,2021-6-08T13:12:07Z
2021-06-08T11:13:57Z,42.805,6.029,13.3022,4.60027,2470.03,2021-6-08T13:15:10Z
2021-06-08T11:17:00Z,42.805,6.029,13.3013,4.60022,2469.993,2021-6-08T13:18:13Z
2021-06-08T11:20:03Z,42.805,6.029,13.3023,4.60019,2470.017,2021-6-08T13:21:16Z
2021-06-08T11:23:07Z,42.805,6.029,13.3015,4.60033,2470.03,2021-6-08T13:24:20Z
2021-06-08T11:26:10Z,42.805,6.029,13.3026,4.60017,2470.017,2021-6-08T13:27:23Z
2021-06-08T11:29:13Z,42.805,6.029,13.3021,4.60011,2469.993,2021-6-08T13:30:26Z
2021-06-08T11:32:16Z,42.805,6.029,13.3024,4.60034,2469.993,2021-6-08T13:33:29Z
2021-06-08T11:35:19Z,42.805,6.029,13.3029,4.60026,2470.017,2021-6-08T13:36:32Z
2021-06-08T11:38:22Z,42.805,6.029,13.3037,4.60023,2470.04,2021-6-08T13:39:35Z
2021-06-08T11:41:25Z,42.805,6.029,13.3026,4.60029,2469.993,2021-6-08T13:42:38Z
2021-06-08T11:44:28Z,42.805,6.029,13.3026,4.60022,2470.017,2021-6-08T13:45:41Z
2021-06-08T11:47:32Z,42.805,6.029,13.3023,4.60013,2470.007,2021-6-08T13:48:45Z
2021-06-08T11:50:35Z,42.805,6.029,13.3021,4.60016,2469.993,2021-6-08T13:51:48Z
2021-06-08T11:53:38Z,42.805,6.029,13.3024,4.60017,2469.97,2021-6-08T13:54:51Z
2021-06-08T11:56:41Z,42.805,6.029,13.3020,4.60020,2470.03,2021-6-08T13:57:54Z
2021-06-08T11:59:44Z,42.805,6.029,13.3019,4.60026,2469.97,2021-6-08T14:00:57Z
2021-06-08T12:02:47Z,42.805,6.029,13.3022,4.60024,2470.007,2021-6-08T14:04:00Z
2021-06-08T12:05:50Z,42.805,6.029,13.3019,4.60021,2470.007,2021-6-08T14:07:03Z
2021-06-08T12:08:53Z,42.805,6.029,13.3019,4.60013,2469.984,2021-6-08T14:10:06Z
2021-06-08T12:11:57Z,42.805,6.029,13.3018,4.60019,2470.03,2021-6-08T14:13:10Z
2021-06-08T12:15:00Z,42.805,6.029,13.3034,4.60006,2470.007,2021-6-08T14:16:13Z
2021-06-08T12:18:03Z,42.805,6.029,13.3022,4.60020,2469.993,2021-6-08T14:19:16Z
2021-06-08T12:21:06Z,42.805,6.029,13.3026,4.60015,2469.947,2021-6-08T14:22:19Z
2021-06-08T12:24:09Z,42.805,6.029,13.3023,4.60022,2470.007,2021-6-08T14:25:22Z
2021-06-08T12:27:12Z,42.805,6.029,13.3016,4.60037,2470.007,2021-6-08T14:28:25Z
2021-06-08T12:30:15Z,42.805,6.029,13.3027,4.60020,2470.017,2021-6-08T14:31:28Z
2021-06-08T12:33:18Z,42.805,6.029,13.3015,4.60014,2469.984,2021-6-08T14:34:31Z
2021-06-08T12:36:22Z,42.805,6.029,13.3014,4.60016,2469.97,2021-6-08T14:37:35Z
2021-06-08T12:39:25Z,42.805,6.029,13.3014,4.60015,2469.97,2021-6-08T14:40:38Z
2021-06-08T12:42:28Z,42.805,6.029,13.3021,4.60018,2469.993,2021-6-08T14:43:41Z
2021-06-08T12:45:31Z,42.805,6.029,13.3013,4.60016,2469.984,2021-6-08T14:46:44Z
2021-06-08T12:48:34Z,42.805,6.029,13.3015,4.60020,2469.993,2021-6-08T14:49:47Z
2021-06-08T12:51:37Z,42.805,6.029,13.3011,4.60014,2470.007,2021-6-08T14:52:50Z
2021-06-08T12:54:40Z,42.805,6.029,13.3010,4.60012,2469.993,2021-6-08T14:55:53Z
2021-06-08T12:57:43Z,42.805,6.029,13.3024,4.60019,2469.984,2021-6-08T14:58:56Z
2021-06-08T13:00:47Z,42.805,6.029,13.3009,4.60013,2469.984,2021-6-08T15:02:00Z
2021-06-08T13:03:50Z,42.805,6.029,13.3021,4.60011,2469.984,2021-6-08T15:05:03Z
2021-06-08T13:06:53Z,42.805,6.029,13.3013,4.60019,2469.97,2021-6-08T15:08:06Z
2021-06-08T13:09:56Z,42.805,6.029,13.3017,4.60020,2469.993,2021-6-08T15:11:09Z
2021-06-08T13:12:59Z,42.805,6.029,13.3019,4.60019,2469.993,2021-6-08T15:14:12Z
2021-06-08T13:16:02Z,42.805,6.029,13.3017,4.60023,2469.993,2021-6-08T15:17:15Z
2021-06-08T13:19:05Z,42.805,6.029,13.3012,4.60022,2470.007,2021-6-08T15:20:18Z
2021-06-08T13:22:08Z,42.805,6.029,13.3017,4.60010,2469.97,2021-6-08T15:23:21Z
2021-06-08T13:25:12Z,42.805,6.029,13.3015,4.60010,2469.993,2021-6-08T15:26:25Z
2021-06-08T13:28:15Z,42.805,6.029,13.3011,4.60016,2470.03,2021-6-08T15:29:28Z
2021-06-08T13:31:18Z,42.805,6.029,13.3028,4.60021,2470.03,2021-6-08T15:32:31Z
2021-06-08T13:34:21Z,42.805,6.029,13.3019,4.60017,2469.993,2021-6-08T15:35:34Z
2021-06-08T13:37:24Z,42.805,6.029,13.3020,4.60019,2469.984,2021-6-08T15:38:37Z
2021-06-08T13:40:27Z,42.805,6.029,13.3006,4.60028,2470.03,2021-6-08T15:41:40Z
2021-06-08T13:43:30Z,42.805,6.029,13.3019,4.60026,2470.007,2021-6-08T15:44:43Z
2021-06-08T13:46:33Z,42.805,6.029,13.3021,4.60014,2469.97,2021-6-08T15:47:46Z
2021-06-08T13:49:37Z,42.805,6.029,13.3024,4.60026,2469.97,2021-6-08T15:50:50Z
2021-06-08T13:52:40Z,42.805,6.029,13.3021,4.60021,2470.03,2021-6-08T15:53:53Z
2021-06-08T13:55:43Z,42.805,6.029,13.3019,4.60026,2469.97,2021-6-08T15:56:56Z
2021-06-08T13:58:46Z,42.805,6.029,13.3012,4.60022,2470.007,2021-6-08T15:59:59Z
2021-06-08T14:01:49Z,42.805,6.029,13.3021,4.60021,2469.993,2021-6-08T16:03:02Z
2021-06-08T14:04:52Z,42.805,6.029,13.3031,4.60023,2470.007,2021-6-08T16:06:05Z
2021-06-08T14:07:55Z,42.805,6.029,13.3021,4.60021,2470.007,2021-6-08T16:09:08Z
2021-06-08T14:10:58Z,42.805,6.029,13.3015,4.60014,2469.97,2021-6-08T16:12:11Z
2021-06-08T14:14:02Z,42.805,6.029,13.3018,4.60015,2469.984,2021-6-08T16:15:14Z
2021-06-08T14:17:05Z,42.805,6.029,13.3007,4.60017,2470.007,2021-6-08T16:18:18Z
2021-06-08T14:20:08Z,42.805,6.029,13.3007,4.60019,2469.97,2021-6-08T16:21:21Z
2021-06-08T14:23:11Z,42.805,6.029,13.3012,4.60014,2470.017,2021-6-08T16:24:24Z
2021-06-08T14:26:14Z,42.805,6.029,13.3015,4.60020,2469.984,2021-6-08T16:27:27Z
2021-06-08T14:29:17Z,42.805,6.029,13.3012,4.60011,2470.007,2021-6-08T16:30:30Z
2021-06-08T14:32:20Z,42.805,6.029,13.3016,4.60030,2470.007,2021-6-08T16:33:33Z
2021-06-08T14:35:23Z,42.805,6.029,13.3024,4.60016,2469.993,2021-6-08T16:36:36Z
2021-06-08T14:38:27Z,42.805,6.029,13.3015,4.60019,2470.017,2021-6-08T16:39:40Z
2021-06-08T14:41:30Z,42.805,6.029,13.3020,4.60019,2470.007,2021-6-08T16:42:43Z
2021-06-08T14:44:33Z,42.805,6.029,13.3015,4.60014,2469.993,2021-6-08T16:45:46Z
2021-06-08T14:47:36Z,42.805,6.029,13.3020,4.60036,2469.97,2021-6-08T16:48:49Z
2021-06-08T14:50:39Z,42.805,6.029,13.3029,4.60015,2470.007,2021-6-08T16:51:52Z
2021-06-08T14:53:42Z,42.805,6.029,13.3035,4.60024,2470.03,2021-6-08T16:54:55Z
2021-06-08T14:56:45Z,42.805,6.029,13.3025,4.60022,2470.053,2021-6-08T16:57:58Z
2021-06-08T14:59:48Z,42.805,6.029,13.3020,4.60031,2470.017,2021-6-08T17:01:01Z
2021-06-08T15:02:52Z,42.805,6.029,13.3028,4.60019,2470.007,2021-6-08T17:04:05Z
2021-06-08T15:05:55Z,42.805,6.029,13.3026,4.60024,2470.053,2021-6-08T17:07:08Z
2021-06-08T15:08:58Z,42.805,6.029,13.3025,4.60024,2469.993,2021-6-08T17:10:11Z
2021-06-08T15:12:01Z,42.805,6.029,13.3020,4.60027,2470.053,2021-6-08T17:13:14Z
2021-06-08T15:15:04Z,42.805,6.029,13.3061,4.60049,2470.04,2021-6-08T17:16:17Z